Meteorología y climatología de Navarra
Datos de la estación - Meteo Navarra

Estación de Goizueta GN

Altitud 142 m.


Datos desde el 03/12/2019 hasta el 04/12/2019 en horario solar
Los datos son PROVISIONALES

Anterior Página 1 de 1 Siguiente Descargar: Formato para Excel 2000 o superior   Formato csv   Formato para OpenOffice Calc
Fecha Temperatura Humedad relativa Radiación global Insolación Precipitación Vel. viento 10 m Vel. viento 10 m Dir. viento 10 m
ºC % W/m² s l/m² m/s km/h º
03/12/2019 0:00 5.3 96 - - - - 0.2 - - - - - -
03/12/2019 0:10 5.3 97 - - - - 0.1 - - - - - -
03/12/2019 0:20 5.2 97 - - - - 0.0 - - - - - -
03/12/2019 0:30 5.2 97 - - - - 0.1 - - - - - -
03/12/2019 0:40 5.1 97 - - - - 0.0 - - - - - -
03/12/2019 0:50 5.1 97 - - - - 0.0 - - - - - -
03/12/2019 1:00 5.1 97 - - - - 0.0 - - - - - -
03/12/2019 1:10 5.1 98 - - - - 0.1 - - - - - -
03/12/2019 1:20 5.0 98 - - - - 0.0 - - - - - -
03/12/2019 1:30 5.0 98 - - - - 0.0 - - - - - -
03/12/2019 1:40 5.0 98 - - - - 0.0 - - - - - -
03/12/2019 1:50 5.0 98 - - - - 0.0 - - - - - -
03/12/2019 2:00 5.0 98 - - - - 0.0 - - - - - -
03/12/2019 2:10 4.9 98 - - - - 0.0 - - - - - -
03/12/2019 2:20 4.9 98 - - - - 0.0 - - - - - -
03/12/2019 2:30 4.8 98 - - - - 0.0 - - - - - -
03/12/2019 2:40 4.8 98 - - - - 0.0 - - - - - -
03/12/2019 2:50 4.8 98 - - - - 0.0 - - - - - -
03/12/2019 3:00 4.9 98 - - - - 0.0 - - - - - -
03/12/2019 3:10 4.9 98 - - - - 0.0 - - - - - -
03/12/2019 3:20 5.0 98 - - - - 0.0 - - - - - -
03/12/2019 3:30 4.9 98 - - - - 0.0 - - - - - -
03/12/2019 3:40 4.9 98 - - - - 0.0 - - - - - -
03/12/2019 3:50 4.9 98 - - - - 0.0 - - - - - -
03/12/2019 4:00 4.9 98 - - - - 0.0 - - - - - -
03/12/2019 4:10 4.8 98 - - - - 0.0 - - - - - -
03/12/2019 4:20 4.9 98 - - - - 0.0 - - - - - -
03/12/2019 4:30 4.9 98 - - - - 0.0 - - - - - -
03/12/2019 4:40 4.9 98 - - - - 0.0 - - - - - -
03/12/2019 4:50 4.9 98 - - - - 0.0 - - - - - -
03/12/2019 5:00 4.9 98 - - - - 0.0 - - - - - -
03/12/2019 5:10 4.9 98 - - - - 0.0 - - - - - -
03/12/2019 5:20 4.8 98 - - - - 0.0 - - - - - -
03/12/2019 5:30 4.8 97 - - - - 0.0 - - - - - -
03/12/2019 5:40 4.9 97 - - - - 0.0 - - - - - -
03/12/2019 5:50 4.8 97 - - - - 0.0 - - - - - -
03/12/2019 6:00 4.9 97 - - - - 0.0 - - - - - -
03/12/2019 6:10 4.8 97 - - - - 0.0 - - - - - -
03/12/2019 6:20 4.7 97 - - - - 0.0 - - - - - -
03/12/2019 6:30 4.6 97 - - - - 0.0 - - - - - -
03/12/2019 6:40 4.4 97 - - - - 0.0 - - - - - -
03/12/2019 6:50 4.3 98 - - - - 0.0 - - - - - -
03/12/2019 7:00 4.3 98 - - - - 0.0 - - - - - -
03/12/2019 7:10 4.3 98 - - - - 0.0 - - - - - -
03/12/2019 7:20 4.2 98 - - - - 0.0 - - - - - -
03/12/2019 7:30 4.2 98 - - - - 0.0 - - - - - -
03/12/2019 7:40 4.2 98 - - - - 0.0 - - - - - -
03/12/2019 7:50 4.2 98 - - - - 0.0 - - - - - -
03/12/2019 8:00 4.2 98 - - - - 0.0 - - - - - -
03/12/2019 8:10 4.3 98 - - - - 0.0 - - - - - -
03/12/2019 8:20 4.3 98 - - - - 0.0 - - - - - -
03/12/2019 8:30 4.3 98 - - - - 0.0 - - - - - -
03/12/2019 8:40 4.4 98 - - - - 0.0 - - - - - -
03/12/2019 8:50 4.6 97 - - - - 0.0 - - - - - -
03/12/2019 9:00 4.7 94 - - - - 0.0 - - - - - -
03/12/2019 9:10 4.8 91 - - - - 0.0 - - - - - -
03/12/2019 9:20 5.0 91 - - - - 0.0 - - - - - -
03/12/2019 9:30 5.1 89 - - - - 0.0 - - - - - -
03/12/2019 9:40 5.2 90 - - - - 0.0 - - - - - -
03/12/2019 9:50 5.3 90 - - - - 0.0 - - - - - -
03/12/2019 10:00 5.3 88 - - - - 0.0 - - - - - -
03/12/2019 10:10 5.4 87 - - - - 0.0 - - - - - -
03/12/2019 10:20 5.4 88 - - - - 0.0 - - - - - -
03/12/2019 10:30 5.5 88 - - - - 0.0 - - - - - -
03/12/2019 10:40 5.6 88 - - - - 0.0 - - - - - -
03/12/2019 10:50 5.7 86 - - - - 0.0 - - - - - -
03/12/2019 11:00 5.8 85 - - - - 0.0 - - - - - -
03/12/2019 11:10 5.8 81 - - - - 0.0 - - - - - -
03/12/2019 11:20 5.8 83 - - - - 0.0 - - - - - -
03/12/2019 11:30 5.9 84 - - - - 0.0 - - - - - -
03/12/2019 11:40 5.9 83 - - - - 0.0 - - - - - -
03/12/2019 11:50 5.8 81 - - - - 0.0 - - - - - -
03/12/2019 12:00 5.9 82 - - - - 0.0 - - - - - -
03/12/2019 12:10 6.1 82 - - - - 0.0 - - - - - -
03/12/2019 12:20 6.3 83 - - - - 0.0 - - - - - -
03/12/2019 12:30 6.3 82 - - - - 0.0 - - - - - -
03/12/2019 12:40 6.5 80 - - - - 0.0 - - - - - -
03/12/2019 12:50 6.4 79 - - - - 0.0 - - - - - -
03/12/2019 13:00 6.3 79 - - - - 0.0 - - - - - -
03/12/2019 13:10 6.4 79 - - - - 0.0 - - - - - -
03/12/2019 13:20 6.7 79 - - - - 0.0 - - - - - -
03/12/2019 13:30 6.7 79 - - - - 0.0 - - - - - -
03/12/2019 13:40 6.7 77 - - - - 0.0 - - - - - -
03/12/2019 13:50 6.7 76 - - - - 0.0 - - - - - -
03/12/2019 14:00 6.8 75 - - - - 0.0 - - - - - -
03/12/2019 14:10 6.9 74 - - - - 0.0 - - - - - -
03/12/2019 14:20 6.9 74 - - - - 0.0 - - - - - -
03/12/2019 14:30 7.0 73 - - - - 0.0 - - - - - -
03/12/2019 14:40 7.2 74 - - - - 0.0 - - - - - -
03/12/2019 14:50 7.1 74 - - - - 0.0 - - - - - -
03/12/2019 15:00 7.1 74 - - - - 0.0 - - - - - -
03/12/2019 15:10 7.0 73 - - - - 0.0 - - - - - -
03/12/2019 15:20 7.2 74 - - - - 0.0 - - - - - -
03/12/2019 15:30 7.1 74 - - - - 0.0 - - - - - -
03/12/2019 15:40 7.0 77 - - - - 0.0 - - - - - -
03/12/2019 15:50 6.9 78 - - - - 0.0 - - - - - -
03/12/2019 16:00 6.8 84 - - - - 0.0 - - - - - -
03/12/2019 16:10 6.4 86 - - - - 0.0 - - - - - -
03/12/2019 16:20 5.8 87 - - - - 0.0 - - - - - -
03/12/2019 16:30 5.2 88 - - - - 0.0 - - - - - -
03/12/2019 16:40 4.7 90 - - - - 0.0 - - - - - -
03/12/2019 16:50 4.2 92 - - - - 0.0 - - - - - -
03/12/2019 17:00 3.8 92 - - - - 0.0 - - - - - -
03/12/2019 17:10 3.3 92 - - - - 0.0 - - - - - -
03/12/2019 17:20 3.2 94 - - - - 0.0 - - - - - -
03/12/2019 17:30 3.3 95 - - - - 0.0 - - - - - -
03/12/2019 17:40 3.3 96 - - - - 0.0 - - - - - -
03/12/2019 17:50 3.4 96 - - - - 0.0 - - - - - -
03/12/2019 18:00 3.2 96 - - - - 0.0 - - - - - -
03/12/2019 18:10 2.8 96 - - - - 0.0 - - - - - -
03/12/2019 18:20 2.4 96 - - - - 0.0 - - - - - -
03/12/2019 18:30 2.2 97 - - - - 0.0 - - - - - -
03/12/2019 18:40 2.0 97 - - - - 0.0 - - - - - -
03/12/2019 18:50 1.7 97 - - - - 0.0 - - - - - -
03/12/2019 19:00 1.7 98 - - - - 0.0 - - - - - -
03/12/2019 19:10 1.4 98 - - - - 0.0 - - - - - -
03/12/2019 19:20 1.3 98 - - - - 0.0 - - - - - -
03/12/2019 19:30 1.0 98 - - - - 0.0 - - - - - -
03/12/2019 19:40 1.0 98 - - - - 0.0 - - - - - -
03/12/2019 19:50 1.1 99 - - - - 0.0 - - - - - -
03/12/2019 20:00 0.9 98 - - - - 0.0 - - - - - -
03/12/2019 20:10 0.7 99 - - - - 0.0 - - - - - -
03/12/2019 20:20 0.8 99 - - - - 0.0 - - - - - -
03/12/2019 20:30 0.9 99 - - - - 0.0 - - - - - -
03/12/2019 20:40 0.7 99 - - - - 0.0 - - - - - -
03/12/2019 20:50 0.7 99 - - - - 0.0 - - - - - -
03/12/2019 21:00 0.6 99 - - - - 0.0 - - - - - -
03/12/2019 21:10 0.9 99 - - - - 0.0 - - - - - -
03/12/2019 21:20 0.8 99 - - - - 0.0 - - - - - -
03/12/2019 21:30 0.5 99 - - - - 0.0 - - - - - -
03/12/2019 21:40 0.6 99 - - - - 0.0 - - - - - -
03/12/2019 21:50 0.6 99 - - - - 0.0 - - - - - -
03/12/2019 22:00 0.3 99 - - - - 0.0 - - - - - -
03/12/2019 22:10 0.4 99 - - - - 0.0 - - - - - -
03/12/2019 22:20 0.2 99 - - - - 0.0 - - - - - -
03/12/2019 22:30 -0.0 99 - - - - 0.0 - - - - - -
03/12/2019 22:40 -0.2 99 - - - - 0.0 - - - - - -
03/12/2019 22:50 0.2 99 - - - - 0.0 - - - - - -
03/12/2019 23:00 0.1 99 - - - - 0.0 - - - - - -
03/12/2019 23:10 0.1 99 - - - - 0.0 - - - - - -
03/12/2019 23:20 0.0 100 - - - - 0.0 - - - - - -
03/12/2019 23:30 0.0 100 - - - - 0.0 - - - - - -
03/12/2019 23:40 0.2 100 - - - - 0.0 - - - - - -
03/12/2019 23:50 0.2 100 - - - - 0.0 - - - - - -
Anterior Página 1 de 1 Siguiente

NOTA: Tipo de datos según el color:
   - Valores diarios o 10 minutos correctos
   - Valores diarios calculados a partir de un número de datos 10 minutos menor que 144 y mayor que 120, o de un número de datos semihorarios menor que 48 y mayor que 40 (caso de las estaciones de Riegos de Navarra y del MARM)
   - Valores diez minutos estimados


Contacto        Enlaces        Aviso legal